Lacon, IL

2:36 PM CST on December 05, 2019 (GMT -0600)
Lacon

Weather History for KC75 - October, 2019

Change the Weather History Date:

Tuesday, October 29, 2019

  Actual Average (KVYS) Record (KVYS)
Temperature  
Mean Temperature 38 °F -  
Max Temperature 39 °F 60 °F 80 °F (1971)
Min Temperature 34 °F 37 °F 23 °F (1988)
Degree Days  
Heating Degree Days 28    
Moisture  
Dew Point 32 °F    
Average Humidity 87    
Maximum Humidity 96    
Minimum Humidity 76    
Precipitation  
Precipitation 0.09 in - - ()
Sea Level Pressure  
Sea Level Pressure 30.22 in    
Wind  
Wind Speed 8 mph (NNW)    
Max Wind Speed 15 mph    
Max Gust Speed 24 mph    
Visibility 9 miles    
Events Rain    
Averages and records for this station are not official NWS values.
T = Trace of Precipitation, MM = Missing Value Source: NWS Daily Summary

Daily Weather History Graph

Daily Weather History Graph

Search for Another Location

Airport or City:

Astronomy

Oct. 29, 2019 Rise Set
Actual Time 7:24 AM CDT 5:57 PM CDT
Civil Twilight 6:56 AM CDT 6:25 PM CDT
Nautical Twilight 6:23 AM CDT 6:57 PM CDT
Astronomical Twilight 5:51 AM CDT 7:29 PM CDT
Moon 8:58 AM CDT (10/29) 7:20 PM CDT (10/29)
Length of Visible Light 11h 29m
Length of Day
10h 32m
Waxing Crescent, 3% of the Moon is Illuminated
Oct 29
Waxing Crescent
Nov 4
First Quarter
Nov 12
Full
Nov 19
Last Quarter
Nov 26
New

Hourly Weather History & Observations

Time (CDT) Temp. Windchill Dew Point Humidity Pressure Visibility Wind Dir Wind Speed Gust Speed Precip Events Conditions
12:15 AM 41.7 °F 35.2 °F 37.4 °F 85% 30.03 in 10.0 mi NW 11.5 mph 16.1 mph 0.01 in Rain Rain
12:55 AM 39.2 °F 30.8 °F 37.6 °F 94% 30.05 in 10.0 mi NNW 15.0 mph 19.6 mph 0.05 in Rain Rain
1:15 AM 37.6 °F 29.1 °F 36.3 °F 95% 30.08 in 5.0 mi NNW 13.8 mph 20.7 mph 0.02 in Rain Heavy Rain
1:35 AM 36.3 °F 28.0 °F 34.9 °F 95% 30.09 in 4.0 mi NNW 12.7 mph 19.6 mph 0.04 in Rain Rain
1:55 AM 34.9 °F 25.7 °F 33.4 °F 94% 30.09 in 4.0 mi North 13.8 mph 24.2 mph 0.04 in Rain Light Rain
2:15 AM 34.2 °F 24.8 °F 32.9 °F 95% 30.09 in 5.0 mi NNW 13.8 mph 18.4 mph N/A   Drizzle
2:35 AM 34.0 °F 26.6 °F 32.7 °F 95% 30.07 in 10.0 mi North 9.2 mph 17.3 mph N/A   Light Drizzle
2:55 AM 34.3 °F 29.2 °F 32.9 °F 94% 30.07 in 7.0 mi North 5.8 mph - N/A   Light Drizzle
3:15 AM 34.7 °F 31.8 °F 33.3 °F 94% 30.07 in 7.0 mi North 3.5 mph - N/A   Light Drizzle
3:35 AM 34.7 °F 28.1 °F 33.6 °F 96% 30.08 in 4.0 mi North 8.1 mph - N/A   Drizzle
3:55 AM 34.7 °F 29.6 °F 33.6 °F 96% 30.08 in 5.0 mi NNW 5.8 mph - N/A   Light Drizzle
4:15 AM 34.3 °F 30.2 °F 33.3 °F 96% 30.08 in 5.0 mi North 4.6 mph - N/A   Overcast
4:35 AM 34.7 °F 28.8 °F 33.4 °F 95% 30.09 in 10.0 mi NNW 6.9 mph - N/A   Overcast
4:55 AM 34.7 °F 31.8 °F 33.6 °F 96% 30.10 in 10.0 mi North 3.5 mph - N/A   Overcast
5:15 AM 34.9 °F 28.3 °F 33.8 °F 96% 30.12 in 10.0 mi NW 8.1 mph - N/A   Overcast
5:35 AM 34.7 °F 28.8 °F 33.6 °F 96% 30.13 in 10.0 mi NNW 6.9 mph - N/A   Overcast
5:55 AM 34.7 °F 28.8 °F 33.3 °F 94% 30.14 in 10.0 mi NNW 6.9 mph - N/A   Overcast
6:15 AM 34.7 °F 28.8 °F 32.9 °F 93% 30.15 in 10.0 mi NNW 6.9 mph - N/A   Overcast
6:35 AM 34.2 °F 27.5 °F 33.1 °F 96% 30.16 in 3.0 mi NNW 8.1 mph - N/A   Overcast
6:55 AM 34.0 °F 26.0 °F 33.1 °F 96% 30.16 in 5.0 mi NNW 10.4 mph 17.3 mph N/A   Overcast
7:15 AM 34.0 °F 28.8 °F 32.9 °F 96% 30.16 in 10.0 mi NNW 5.8 mph - N/A   Overcast
7:35 AM 34.0 °F 27.2 °F 32.4 °F 94% 30.16 in 10.0 mi North 8.1 mph - N/A   Overcast
7:55 AM 34.0 °F 27.2 °F 32.4 °F 94% 30.17 in 10.0 mi NNW 8.1 mph - N/A   Overcast
8:15 AM 34.2 °F 26.2 °F 32.0 °F 92% 30.19 in 10.0 mi North 10.4 mph - N/A   Overcast
8:35 AM 34.7 °F 28.1 °F 32.2 °F 91% 30.20 in 10.0 mi NNW 8.1 mph - N/A   Overcast
8:50 AM 34.7 °F 29.6 °F 32.2 °F 91% 30.22 in 10.0 mi NW 5.8 mph - N/A   Overcast
9:15 AM 34.7 °F 30.6 °F 32.0 °F 90% 30.22 in 10.0 mi NNW 4.6 mph - N/A   Overcast
9:35 AM 34.7 °F 30.6 °F 32.0 °F 90% 30.22 in 10.0 mi NW 4.6 mph - N/A   Overcast
9:55 AM 34.9 °F 28.3 °F 32.0 °F 89% 30.24 in 10.0 mi NW 8.1 mph - N/A   Overcast
10:15 AM 35.6 °F 29.2 °F 32.0 °F 87% 30.24 in 10.0 mi NNW 8.1 mph - N/A   Overcast
10:35 AM 35.6 °F 29.2 °F 31.8 °F 86% 30.25 in 10.0 mi NW 8.1 mph - N/A   Overcast
10:55 AM 36.1 °F 30.6 °F 31.8 °F 84% 30.25 in 10.0 mi North 6.9 mph - N/A   Overcast
11:15 AM 36.1 °F 29.3 °F 31.6 °F 84% 30.26 in 10.0 mi NW 9.2 mph - N/A   Overcast
11:35 AM 36.5 °F 32.7 °F 31.5 °F 82% 30.25 in 10.0 mi North 4.6 mph - N/A   Overcast
11:55 AM 36.5 °F 31.0 °F 31.3 °F 81% 30.26 in 10.0 mi NW 6.9 mph - N/A   Overcast
12:15 PM 36.1 °F 30.6 °F 31.8 °F 84% 30.26 in 10.0 mi WNW 6.9 mph - N/A   Overcast
12:35 PM 36.1 °F 30.6 °F 31.3 °F 83% 30.26 in 10.0 mi NW 6.9 mph - N/A   Overcast
12:55 PM 35.8 °F 33.0 °F 31.1 °F 83% 30.26 in 10.0 mi WNW 3.5 mph - N/A   Overcast
1:35 PM 36.1 °F 32.3 °F 31.3 °F 83% 30.26 in 10.0 mi WNW 4.6 mph - N/A   Overcast
1:55 PM 36.1 °F 31.4 °F 30.7 °F 81% 30.26 in 10.0 mi NNW 5.8 mph - N/A   Overcast
2:15 PM 36.5 °F 31.0 °F 31.1 °F 81% 30.26 in 10.0 mi NW 6.9 mph - N/A   Overcast
2:35 PM 36.7 °F 31.2 °F 30.7 °F 79% 30.26 in 10.0 mi NW 6.9 mph - N/A   Overcast
2:55 PM 36.0 °F 30.3 °F 30.0 °F 79% 30.25 in 10.0 mi NNW 6.9 mph - N/A   Overcast
3:15 PM 36.3 °F 30.8 °F 30.2 °F 78% 30.26 in 10.0 mi NW 6.9 mph - N/A   Overcast
3:35 PM 36.0 °F 31.1 °F 30.0 °F 79% 30.27 in 10.0 mi NNW 5.8 mph - N/A   Overcast
3:55 PM 35.8 °F 30.9 °F 29.7 °F 78% 30.27 in 10.0 mi NNW 5.8 mph - N/A   Overcast
4:15 PM 35.6 °F 29.2 °F 29.8 °F 80% 30.27 in 10.0 mi NNW 8.1 mph - N/A   Overcast
4:35 PM 35.6 °F 31.7 °F 28.8 °F 76% 30.27 in 10.0 mi North 4.6 mph - N/A   Overcast
4:55 PM 35.6 °F 29.2 °F 29.1 °F 77% 30.28 in 10.0 mi NNW 8.1 mph - N/A   Overcast
5:15 PM 35.2 °F 31.2 °F 28.4 °F 76% 30.29 in 10.0 mi NNW 4.6 mph - N/A   Overcast
5:35 PM 35.1 °F 31.0 °F 28.8 °F 78% 30.28 in 10.0 mi NNW 4.6 mph - N/A   Overcast
5:55 PM 35.2 °F - 28.9 °F 78% 30.29 in 10.0 mi Calm Calm - N/A   Overcast
6:15 PM 35.2 °F 32.4 °F 28.4 °F 76% 30.28 in 10.0 mi North 3.5 mph - N/A   Overcast
6:35 PM 35.2 °F - 28.9 °F 78% 30.29 in 10.0 mi Calm Calm - N/A   Overcast
6:55 PM 35.6 °F - 29.8 °F 80% 30.30 in 10.0 mi Calm Calm - N/A   Overcast
7:35 PM 35.2 °F - 31.5 °F 86% 30.31 in 10.0 mi Calm Calm - N/A   Overcast
7:55 PM 35.2 °F - 31.1 °F 85% 30.31 in 10.0 mi Calm Calm - N/A   Overcast
8:15 PM 35.6 °F - 31.5 °F 85% 30.29 in 10.0 mi Calm Calm - N/A   Overcast
8:35 PM 35.4 °F - 31.3 °F 85% 30.31 in 10.0 mi Calm Calm - N/A   Overcast
8:50 PM 35.6 °F - 30.9 °F 83% 30.31 in 10.0 mi Calm Calm - N/A   Mostly Cloudy
9:15 PM 35.6 °F - 31.3 °F 84% 30.30 in 10.0 mi Calm Calm - N/A   Scattered Clouds
9:35 PM 35.6 °F - 30.7 °F 82% 30.30 in 10.0 mi Calm Calm - N/A   Overcast
9:55 PM 35.8 °F - 30.7 °F 82% 30.31 in 10.0 mi Calm Calm - N/A   Overcast
10:10 PM 35.8 °F - 30.7 °F 82% 30.30 in 10.0 mi Calm Calm - N/A   Overcast
10:35 PM 35.8 °F 31.9 °F 30.4 °F 81% 30.29 in 10.0 mi NE 4.6 mph - N/A   Overcast
10:55 PM 35.8 °F - 30.4 °F 81% 30.30 in 10.0 mi Calm Calm - N/A   Overcast
11:15 PM 35.8 °F 33.0 °F 30.6 °F 81% 30.28 in 10.0 mi NE 3.5 mph - N/A   Overcast
11:35 PM 35.6 °F 32.8 °F 30.2 °F 81% 30.29 in 10.0 mi North 3.5 mph - N/A Rain Light Rain
11:50 PM 35.6 °F - 30.7 °F 82% 30.30 in 10.0 mi Calm Calm - N/A   Light Drizzle